George, South Africa

6:53 AM SAST on April 29, 2017 (GMT +0200)
George

Weather History for FAGG - April, 2012

Change the Weather History Date:

Sunday, April 15, 2012

  Actual Average Record
Temperature  
Mean Temperature 64 °F -  
Max Temperature 72 °F 69 °F 86 °F (2005)
Min Temperature 55 °F 51 °F 46 °F (2001)
Degree Days  
Heating Degree Days 2    
Growing Degree Days 14 (Base 50)    
Moisture  
Dew Point 52 °F    
Average Humidity 70    
Maximum Humidity 100    
Minimum Humidity 26    
Precipitation  
Precipitation 0.00 in - - ()
Sea Level Pressure  
Sea Level Pressure 29.99 in    
Wind  
Wind Speed 8 mph ()    
Max Wind Speed 18 mph    
Max Gust Speed -    
Visibility 7.4 miles    
Events Rain    
Averages and records for this station are not official NWS values.
T = Trace of Precipitation, MM = Missing Value Source: Averaged Metar Reports

Daily Weather History Graph

Daily Weather History Graph

Search for Another Location

Airport or City:

Trip Planner

Search our weather history database for the weather conditions in past years. The results will help you decide how hot, cold, wet, or windy it might be!

Date:

Astronomy

Apr. 15, 2012 Rise Set
Actual Time 6:53 AM SAST 6:06 PM SAST
Civil Twilight 6:28 AM SAST 6:32 PM SAST
Nautical Twilight 5:59 AM SAST 7:01 PM SAST
Astronomical Twilight 5:30 AM SAST 7:30 PM SAST
Moon 1:23 AM SAST (4/15) 2:47 PM SAST (4/15)
Length of Visible Light 12h 04m
Length of Day
11h 13m
Waning Crescent, 30% of the Moon is Illuminated
Apr 15
Waning Crescent
Apr 21
New
Apr 29
First Quarter
May 6
Full
May 12
Last Quarter

Hourly Weather History & Observations

Time (SAST) Temp. Dew Point Humidity Pressure Visibility Wind Dir Wind Speed Gust Speed Precip Events Conditions
12:00 AM 59.0 °F 57.2 °F 94% 29.89 in 6.2 mi West 9.2 mph - N/A   Overcast
1:00 AM 57.2 °F 57.2 °F 100% 29.89 in - West 8.1 mph - N/A Rain Light Rain
2:00 AM 57 °F 57 °F 100% 29.90 in 6 mi WNW 5.8 mph - -  
2:00 AM 57.2 °F 57.2 °F 100% 29.89 in 6.2 mi WNW 6.9 mph - N/A   Overcast
3:00 AM 57.2 °F 53.6 °F 88% 29.89 in 6.2 mi WNW 10.4 mph - N/A   Overcast
4:00 AM 57.2 °F 53.6 °F 88% 29.89 in 6.2 mi WNW 8.1 mph - N/A   Overcast
5:00 AM 58 °F 51 °F 71% 29.92 in 12 mi NW 9.2 mph - -   Overcast
5:00 AM 57.2 °F 51.8 °F 82% 29.92 in 6.2 mi NW 9.2 mph - N/A   Overcast
6:00 AM 57.2 °F 50.0 °F 77% 29.92 in 6.2 mi WNW 9.2 mph - N/A   Mostly Cloudy
7:00 AM 57.2 °F 51.8 °F 82% 29.95 in 6.2 mi NNW 4.6 mph - N/A   Mostly Cloudy
8:00 AM 58 °F 51 °F 72% 29.98 in 12 mi North 4.6 mph - -   Partly Cloudy
8:00 AM 59.0 °F 51.8 °F 77% 29.98 in 6.2 mi North 4.6 mph - N/A   Scattered Clouds
9:00 AM 62.6 °F 50.0 °F 63% 29.98 in 6.2 mi NW 6.9 mph - N/A   Scattered Clouds
10:00 AM 66.2 °F 44.6 °F 46% 29.98 in 6.2 mi WNW 16.1 mph - N/A   Partly Cloudy
11:00 AM 68 °F 46 °F 34% 29.99 in 12 mi West 17.3 mph - -   Partly Cloudy
11:00 AM 68.0 °F 46.4 °F 46% 30.01 in 6.2 mi West 17.3 mph - N/A   Scattered Clouds
12:00 PM 69.8 °F 42.8 °F 38% 30.01 in 6.2 mi West 13.8 mph - N/A   Scattered Clouds
1:00 PM 69.8 °F 46.4 °F 43% 29.98 in 6.2 mi SW 10.4 mph - N/A   Scattered Clouds
2:00 PM 71 °F 44 °F 26% 29.99 in 12 mi SW 11.5 mph - -   Partly Cloudy
2:00 PM 69.8 °F 44.6 °F 40% 29.98 in 6.2 mi WSW 10.4 mph - N/A   Scattered Clouds
3:00 PM 66.2 °F 53.6 °F 64% 29.98 in 6.2 mi SSW 18.4 mph - N/A   Scattered Clouds
4:00 PM 64.4 °F 55.4 °F 73% 30.01 in 6.2 mi SSW 18.4 mph - N/A   Scattered Clouds
5:00 PM 62 °F 54 °F 69% 30.05 in 12 mi SSW 12.7 mph - -   Partly Cloudy
5:00 PM 62.6 °F 55.4 °F 77% 30.04 in 6.2 mi SSW 12.7 mph - N/A   Scattered Clouds
6:00 PM 62.6 °F 53.6 °F 72% 30.06 in 6.2 mi SW 4.6 mph - N/A   Mostly Cloudy
7:00 PM 60.8 °F 51.8 °F 72% 30.06 in 6.2 mi SW 11.5 mph - N/A   Mostly Cloudy
8:00 PM 60 °F 53 °F 69% 30.11 in 12 mi WNW 3.5 mph - -   Mostly Cloudy
8:00 PM 60.8 °F 51.8 °F 72% 30.09 in 6.2 mi WNW 3.5 mph - N/A   Mostly Cloudy
9:00 PM 60.8 °F 53.6 °F 77% 30.12 in 6.2 mi North 3.5 mph - N/A   Overcast
10:00 PM 60.8 °F 53.6 °F 77% 30.12 in 6.2 mi NNW 4.6 mph - N/A   Mostly Cloudy
11:00 PM 59.0 °F 53.6 °F 82% 30.12 in 6.2 mi NNW 3.5 mph - N/A   Mostly Cloudy